This demonstration page uses our WeatherBlox Daily Observations layout. Learn more.

Hourly Observations for October 20, 2019

Temp ( °F °C ) Dew Point ( °F °C ) Humidity (%) Winds ( mph kmh ) Pressure ( in mb ) Visibility ( mi km ) Precip ( " mm )
12:53 am 00:53 Mostly Cloudy 48 8.9 26 -3.3 42 42 SSE 6 9 29.48 998 10 16.0934 0 0
1:53 am 01:53 Clear 46 7.8 25 -3.9 44 44 E 3 6 29.47 998 10 16.0934 0 0
2:53 am 02:53 Mostly Clear 49 9.4 33 0.6 55 55 W 22 35 29.46 998 10 16.0934 0 0
3:53 am 03:53 Clear 45 7.2 33 0.6 63 63 WNW 25 41 29.5 999 10 16.0934 0 0
4:53 am 04:53 Mostly Cloudy 46 7.8 25 -3.9 44 44 W 22 35 29.49 999 10 16.0934 0 0
5:53 am 05:53 Clear 44 6.7 23 -5 43 43 W 23 37 29.51 999 10 16.0934 0 0
6:53 am 06:53 Clear 43 6.1 23 -5 45 45 W 20 31 29.52 1000 10 16.0934 0 0
7:53 am 07:53 Sunny 43 6.1 23 -5 45 45 W 23 37 29.53 1000 10 16.0934 0 0
8:53 am 08:53 Sunny 43 6.1 24 -4.4 47 47 W 14 22 29.54 1000 10 16.0934 0 0
9:53 am 09:53 Mostly Sunny 47 8.3 25 -3.9 42 42 W 24 39 29.51 999 10 16.0934 0 0
10:53 am 10:53 Mostly Cloudy 47 8.3 28 -2.2 48 48 W 32 52 29.5 999 10 16.0934 0 0
11:53 am 11:53 Cloudy 45 7.2 34 1.1 66 66 W 31 50 29.51 999 10 16.0934 0.001 0.001
12:53 pm 12:53 Cloudy with Light Rain 44 6.7 34 1.1 68 68 W 23 37 29.51 999 10 16.0934 0.001 0.001
1:01 pm 13:01 Cloudy with Light Rain 45 7.2 35 1.7 68 68 WNW 30 48 29.54 1000 10 16.0934 0.001 0.001
1:26 pm 13:26 Cloudy 45 7.2 33 0.6 63 63 WNW 22 35 29.53 1000 10 16.0934 0.001 0.001
1:46 pm 13:46 Cloudy 45 7 32 0 61 61 WNW 25 41 29.54 1000 10 16.0934 0 0
1:53 pm 13:53 Cloudy 44 6.7 32 0 63 63 WNW 25 41 29.52 1000 10 16.0934 0.001 0.001
2:16 pm 14:16 Cloudy 43 6 34 1 71 71 W 26 43 29.57 1001 10 16.0934 0 0
2:53 pm 14:53 Cloudy with Light Rain 42 5.6 35 1.7 76 76 W 24 39 29.54 1000 8 12.87472 0.001 0.001
3:15 pm 15:15 Cloudy with Light Rain 39 3.9 36 2.2 89 89 WNW 26 43 29.64 1004 10 16.0934 0.001 0.001
3:36 pm 15:36 Windy with Snow Likely 36 2 36 2 100 100 WNW 24 39 29.68 1005 4 6.43736 0 0
3:53 pm 15:53 Cloudy with Light Rain 37 2.8 37 2.8 100 100 W 22 35 29.61 1003 6 9.65604 0.04 1.016
4:04 pm 16:04 Cloudy with Light Rain 37 3 37 3 100 100 WNW 21 33 29.67 1005 4 6.43736 0 0
4:14 pm 16:14 Cloudy with Light Rain 36 2.2 36 2.2 100 100 WNW 22 35 29.68 1005 3 4.82802 0.02 0.508
4:24 pm 16:24 Cloudy with Light Rain 37 3 37 3 100 100 WNW 23 37 29.67 1005 4 6.43736 0 0
4:40 pm 16:40 Cloudy with Rain 37 2.8 37 2.8 100 100 WNW 24 39 29.69 1005 3 4.82802 0.04 1.016
4:45 pm 16:45 Cloudy with Rain 37 3 N/A N/A WNW 22 35 29.68 1005 3 4.82802 0.05 1.27
4:53 pm 16:53 Cloudy with Rain 36 2 N/A N/A WNW 23 37 29.63 1003 3 4.82802 0.06 1.524
5:35 pm 17:35 Cloudy with Light Rain 37 3 N/A N/A WNW 30 48 29.72 1007 7 11.26538 0.03 0.762
5:43 pm 17:43 Cloudy with Light Rain 37 3 N/A N/A NW 35 56 29.73 1007 6 9.65604 0.04 1.016
5:53 pm 17:53 Cloudy with Light Rain 37 3 N/A N/A WNW 35 56 29.68 1005 9 14.48406 0.04 1.016
6:16 pm 18:16 Cloudy with Light Rain 37 3 N/A N/A NW 38 61 29.76 1008 10 16.0934 0.001 0.001
6:53 pm 18:53 Cloudy 37 3 N/A N/A WNW 32 52 29.75 1007 10 16.0934 0.001 0.001
7:08 pm 19:08 Cloudy with Light Rain 39 4 37 3 93 93 WNW 33 54 29.8 1009 10 16.0934 0 0
7:53 pm 19:53 Cloudy 40 4.4 35 1.7 83 83 WNW 30 48 29.78 1008 10 16.0934 0.001 0.001
8:53 pm 20:53 Cloudy 41 5 35 1.7 79 79 WNW 26 43 29.81 1009 10 16.0934 0 0
9:53 pm 21:53 Cloudy 41 5 33 0.6 73 73 WNW 30 48 29.82 1010 10 16.0934 0 0
10:53 pm 22:53 Partly Cloudy 39 3.9 33 0.6 79 79 WNW 16 26 29.84 1011 10 16.0934 0 0
11:04 pm 23:04 Mostly Cloudy 39 3.9 33 0.6 79 79 WNW 20 31 29.89 1012 10 16.0934 0 0
11:17 pm 23:17 Partly Cloudy 39 3.9 33 0.6 79 79 WNW 17 28 29.88 1012 10 16.0934 0 0
11:53 pm 23:53 Mostly Clear 38 3.3 33 0.6 83 83 WNW 15 24 29.83 1010 10 16.0934 0 0

Powered by AerisWeather